Regional Weather Roundup
Issued by NWS

Home | Current Version | Previous Version | Text Only | Print | Product List | Glossary Off
Versions: 1 2 3 4 5 6 7 8 9 10 11 12 13 14 15 16 17 18 19 20 21 22 23 24 25 26 27 28 29 30 31 32 33 34 35 36 37 38 39 40 41 42 43 44 45 46 47 48 49 50

000
ASUS43 KMKX 271238
RWRWI

WISCONSIN REGIONAL WEATHER ROUNDUP
NATIONAL WEATHER SERVICE MILWAUKEE/SULLIVAN WI
800 AM CDT WED MAY 27 2015

NOTE: "FAIR" INDICATES FEW OR NO CLOUDS BELOW 12,000 FEET WITH NO
SIGNIFICANT WEATHER AND/OR OBSTRUCTIONS TO VISIBILITY.

WIZ001-002-006>008-014>016-023>028-271400-
NORTHWEST WISCONSIN

CITY           SKY/WX    TMP DP  RH WIND       PRES   REMARKS
SUPERIOR ARPT  PTSUNNY   53  51  92 SW9       29.82R
ASHLAND        CLOUDY    55  53  93 SW9       29.82R
HAYWARD        CLOUDY    53  51  93 SW3       29.86R
SIREN          PTSUNNY   53  52  98 CALM      29.87R
CUMBERLAND     CLOUDY    52  50  93 SW5       29.88R
RICE LAKE      CLOUDY    54  52  94 CALM      29.89R
CHETEK         CLOUDY    54  54 100 CALM      29.88R
LADYSMITH      CLOUDY    55  54  97 W3        29.88R
EAU CLAIRE     CLOUDY    56  54  93 SW5       29.89R
MENOMONIE      CLOUDY    56  56 100 SW5       29.90R FOG
NEW RICHMOND   PTSUNNY   55  55 100 SW5       29.90R FOG
OSCEOLA        PTSUNNY   54  54 100 S3        29.92R
$$

WIZ003>005-009-010-017-018-271400-
NORTH CENTRAL WISCONSIN

CITY           SKY/WX    TMP DP  RH WIND       PRES   REMARKS
MANITOWISH WTR CLOUDY    53  53 100 W7        29.82R
ARBOR VITAE    DRIZZLE   55  53  94 W5        29.83R
WOODRUFF       DRIZZLE   55  53  94 W5        29.83R
RHINELANDER    LGT RAIN  53  52  96 W6        29.83R FOG
EAGLE RIVER    LGT RAIN  53  53 100 W3        29.82R
LAND O LAKES   LGT RAIN  54  53  97 W3        29.82R
PHILLIPS       CLOUDY    52  52 100 CALM      29.85R
TOMAHAWK       LGT RAIN  52  51  96 W6        29.84R
MEDFORD        LGT RAIN  53  53  98 W8        29.86R
MERRILL        LGT RAIN  54  54 100 W5        29.85R
$$

WIZ029-030-035-036-043>047-271400-
CENTRAL WISCONSIN

CITY           SKY/WX    TMP DP  RH WIND       PRES   REMARKS
WAUSAU         LGT RAIN  55  53  93 NW7       29.83R
MOSINEE        CLOUDY    54  54 100 W8        29.85R
MARSHFIELD     CLOUDY    57  53  86 W10       29.86R
STEVENS POINT  CLOUDY    55  53  94 W6G17     29.86R
WAUPACA        CLOUDY    61  58  88 W12G17    29.84R
WAUTOMA        CLOUDY    60  58  93 W15       29.86R
WISC RAPIDS    CLOUDY    57  54  89 NW9       29.89R
CAMP DOUGLAS   CLOUDY    57  55  94 W6        29.90
$$

WIZ011>013-019>022-031-037>040-048>050-271400-
NORTHEAST WISCONSIN

CITY           SKY/WX    TMP DP  RH WIND       PRES   REMARKS
ANTIGO         CLOUDY    53  53  99 W12       29.82R FOG
SHAWANO        DRIZZLE   59  56  91 W7        29.80R
OCONTO         CLOUDY    58  58 100 W10G20    29.76R
STURGEON BAY   CLOUDY    61  55  82 W12       29.78R
GREEN BAY      CLOUDY    61  56  83 W15       29.79R
MANITOWOC      CLOUDY    63  58  83 W10G20    29.80R
APPLETON       NOT AVBL
CLINTONVILLE   CLOUDY    59  55  88 W10G16    29.81R
OSHKOSH        CLOUDY    62  56  80 W7        29.83R
$$

WIZ032>034-041-042-053>061-271400-
SOUTHWEST WISCONSIN

CITY           SKY/WX    TMP DP  RH WIND       PRES   REMARKS
LA CROSSE      CLOUDY    61  57  87 W6        29.91R
SPARTA         CLOUDY    58  56  93 W5        29.91R
VIROQUA        CLOUDY    57  57 100 W6        29.91R
BOSCOBEL       CLOUDY    61  58  90 SW6       29.90R
PRAIRIE DU CHI CLOUDY    61  56  85 W6        29.92R
PLATTEVILLE    CLOUDY    60  59  96 W8        29.92R
$$

WIZ056-057-062-063-064-067-068-271400-
SOUTH CENTRAL WISCONSIN

CITY           SKY/WX    TMP DP  RH WIND       PRES   REMARKS
REEDSBURG      CLOUDY    58  57  97 W8        29.88R FOG
BARABOO/DELLS  CLOUDY    59  56  91 W5        29.88R
LONE ROCK      CLOUDY    60  57  89 W7        29.90R
MINERAL POINT  CLOUDY    61  59  94 W9        29.91R FOG
MADISON        PTSUNNY   61  57  87 W3        29.88R
MIDDLETON      CLOUDY    62  60  93 W7        29.89R
WATERTOWN      CLOUDY    60  60 100 SW7       29.87R
MONROE         LGT RAIN  61  59  94 W13       29.90S
JANESVILLE     CLOUDY    63  61  94 SW8       29.89R
$$

WIZ051-052-058>065-066-070>072-271400-
SOUTHEAST WISCONSIN

CITY           SKY/WX    TMP DP  RH WIND       PRES   REMARKS
MILWAUKEE      PTSUNNY   63  58  83 W10       29.87R
WAUKESHA       CLOUDY    59  57  94 SW12      29.89R
MILWAUKEE/TIMM CLOUDY    61  55  82 W9        29.88R
RACINE         MOSUNNY   66  60  81 SW8       29.89R
BURLINGTON     RAIN      61  59  94 W3        29.89R
KENOSHA        PTSUNNY   65  61  87 SW9       29.88R
FOND DU LAC    PTSUNNY   62  57  83 SW9       29.84R
SHEBOYGAN      MOSUNNY   63  57  81 SW15      29.82R
WEST BEND      CLOUDY    61  55  82 SW9       29.85S
JUNEAU         CLOUDY    60  58  93 SW9       29.87S
$$

LSZ147-162-271400-
LAKE SUPERIOR

STATION/POSITION TIME  TEMP    WIND        PRES    WAVE
                       AIR SEA DIR/SP/G            HT/PER
                 (UTC) (F)     (DEG/KT/KT) (MB)    (FT/S)
W MID LAKE BUOY  1150   42 37  230/ 12/ 14 1081.0R   1
DEVILS ISLAND    1200   52     240/ 15/ 17 1088.0R
PORT WING        1100   54     200/  5/  7   N/A
SAXON HARBOR     1100   53     190/  3/  8   N/A
$$

LMZ867-665-643>646-271400-
LAKE MICHIGAN

STATION/POSITION TIME  TEMP    WIND        PRES    WAVE
                       AIR SEA DIR/SP/G            HT/PER
                 (UTC) (F)     (DEG/KT/KT) (MB)    (FT/S)
CHAMBERS ISLAND  1100   57     230/  5/ 10 1064.0R
N MID LAKE BUOY  1150   44 37  250/ 14/ 16 1065.0R   5/ 6
NORTHPORT PIER   1100   54     290/  6/ 11 1061.0R
SISTER BAY       1103   54     310/  8/  9   N/A
ALGOMA LAKESHORE 1138          280/ 10/ 19   N/A
KEWAUNEE LAKESHO 1200   62     250/ 11/ 18 1078.0R
SHEBOYGAN LAKESH 1200   63     240/ 15/ 17   N/A
PORT WASHINGTON  1100   62     250/  6/ 11   N/A
ATWATER BUOY     1200   61 45  250/ 14/ 16   N/A
MILWAUKEE LAKESH 1200   64     250/ 11/ 15   N/A
S MID LAKE BUOY  1150   48 38  210/ 14/ 16   N/A     1/ 4
KENOSHA   LAKESH 1000   65     220/  8/ 12   N/A
$$

TC  - TEMPERATURE IN CELSIUS
VSB - VISIBILITY IN STATUTE MILES
WCI - WIND CHILL INDEX
HX  - HEAT INDEX



USA.gov is the U.S. government's official web portal to all federal, state and local government web resources and services.